Location: Holyhead Bay
(53.3667°N, 4.6667°W)
Time: 19:16:34
(UTC+00:00)

Cosmos 1939 Rocket - Pass Details

Date: 24 November 2020
Orbit: 533 x 583 km, 97.4° (Epoch: 16 January)

Event Time Altitude Azimuth Distance (km) Brightness Sun altitude
Rises 17:46:07 0° 151° (SSE) 2,673 6.2 -13.7°
Reaches altitude 10° 17:48:15 10° 146° (SE) 1,789 5.2 -14.0°
Maximum altitude 17:51:59 51° 71° (ENE) 686 2.9 -14.5°
Drops below altitude 10° 17:55:48 10° 355° (N) 1,821 5.4 -15.1°
Sets 17:57:59 0° 350° (N) 2,726 6.3 -15.4°
